Location: Castiglione Fibocchi
(43.5333°N, 11.7667°E)
Time: 18:55:19
(UTC+00:00)

Cosmos 1825 Rocket - Pass Details

Date: 15 August 2020
Orbit: 603 x 631 km, 82.5° (Epoch: 20 September)

Event Time Altitude Azimuth Distance (km) Brightness Sun altitude
Rises 02:48:46 0° 343° (NNW) 2,871 7.3 -15.0°
Reaches altitude 10° 02:51:06 10° 335° (NNW) 1,960 6.3 -14.7°
Maximum altitude 02:55:05 37° 269° (W) 950 4.1 -14.1°
Enters shadow 02:57:30 20° 213° (SSW) 1,408 4.8 -13.7°
